DW8222 Weather Reports


Display with metric or nautical units.
time (UTC)temp
F
wind
direction
speed
MPH
gust
MPH
rain 1hr
in
rain 24hr
in
rain mn
in
humidity
%
barometer
mb
20260504201523 78 297 6.0 13.0 0.00 0.00 0.00 32 1007.2
20260504200021 78 257 4.0 12.0 0.00 0.00 0.00 29 1007.3
20260504194518 77 271 7.0 15.0 0.00 0.00 0.00 30 1007.4
20260504193018 77 302 7.0 16.0 0.00 0.00 0.00 31 1007.6
20260504191515 78 198 4.0 10.0 0.00 0.00 0.00 31 1007.5
20260504190013 77 276 5.0 13.0 0.00 0.00 0.00 34 1007.8
20260504184508 76 301 3.0 10.0 0.00 0.00 0.00 38 1007.8
20260504183005 75 277 6.0 10.0 0.00 0.00 0.00 39 1007.9
20260504181603 73 321 7.0 13.0 0.00 0.00 0.00 39 1008.1
20260504180057 72 302 5.0 14.0 0.00 0.00 0.00 41 1008.2
20260504174557 71 308 8.0 13.0 0.00 0.00 0.00 42 1008.3
20260504173050 70 293 4.0 12.0 0.00 0.00 0.00 43 1008.4
20260504171546 69 314 3.0 8.0 0.00 0.00 0.00 52 1008.5
20260504081552 48 285 1.0 2.0 0.00 0.00 0.00 81 1009.3
20260504070140 50 284 0.0 1.0 0.00 0.00 0.00 79 1009.2
20260504050024 61 122 0.0 1.0 0.00 0.00 0.00 55 1008.9
20260504044523 64 8 0.0 2.0 0.00 0.00 0.00 49 1008.9
20260504043024 66 281 0.0 2.0 0.00 0.00 0.00 46 1008.8
20260504041520 70 306 0.0 8.0 0.00 0.00 0.00 40 1008.6
20260504040018 72 279 6.0 15.0 0.00 0.00 0.00 33 1008.5
20260504034516 73 259 6.0 12.0 0.00 0.00 0.00 33 1008.2
20260504033014 73 277 6.0 12.0 0.00 0.00 0.00 33 1008.1
20260504031513 74 271 4.0 12.0 0.00 0.00 0.00 34 1008.0
20260504030014 74 253 5.0 10.0 0.00 0.00 0.00 34 1008.0
20260504024510 74 203 2.0 5.0 0.00 0.00 0.00 35 1007.9
20260504023009 73 207 1.0 6.0 0.00 0.00 0.00 35 1007.7
20260504021510 74 278 2.0 4.0 0.00 0.00 0.00 37 1007.7
20260504020003 75 249 2.0 4.0 0.00 0.00 0.00 41 1007.8
20260504014502 79 222 1.0 3.0 0.00 0.00 0.00 34 1007.8
20260504013059 80 269 0.0 6.0 0.00 0.00 0.00 31 1007.8
20260504011557 79 115 5.0 8.0 0.00 0.00 0.00 31 1007.8
20260504010059 80 124 5.0 9.0 0.00 0.00 0.00 28 1008.0
20260504004549 81 123 4.0 9.0 0.00 0.00 0.00 27 1008.2
20260504003044 81 88 3.0 7.0 0.00 0.00 0.00 27 1008.3
20260504001541 81 124 4.0 9.0 0.00 0.00 0.00 25 1008.4
20260504000037 81 136 2.0 7.0 0.00 0.00 0.00 25 1008.6
20260503234536 80 181 2.0 7.0 0.00 0.00 0.00 27 1008.8
20260503233028 80 105 5.0 7.0 0.00 0.00 0.00 27 1009.0
20260503231525 80 143 4.0 9.0 0.00 0.00 0.00 26 1009.2
20260503230022 81 101 1.0 8.0 0.00 0.00 0.00 26 1009.5
20260503224518 81 131 4.0 11.0 0.00 0.00 0.00 25 1009.7
20260503223016 81 105 1.0 4.0 0.00 0.00 0.00 26 1010.0
20260503221509 80 107 5.0 11.0 0.00 0.00 0.00 28 1010.2
20260503220019 79 85 4.0 8.0 0.00 0.00 0.00 29 1010.4
20260503214501 79 150 6.0 12.0 0.00 0.00 0.00 31 1010.7
20260503213057 79 120 3.0 9.0 0.00 0.00 0.00 31 1011.0
20260503211554 78 117 4.0 10.0 0.00 0.00 0.00 28 1011.1
20260503210052 78 120 5.0 7.0 0.00 0.00 0.00 29 1011.3
20260503204548 78 169 2.0 9.0 0.00 0.00 0.00 32 1011.7
20260503203046 77 110 4.0 9.0 0.00 0.00 0.00 33 1012.0